Weather History for Syracuse, NY

Change the Weather History Date:

Tuesday, February 26, 2013

  Actual Average Record
Temperature  
Mean Temperature 32 °F 28 °F  
Max Temperature 44 °F 37 °F 64 °F (1976)
Min Temperature 19 °F 20 °F -10 °F (1990)
Degree Days  
Heating Degree Days 33 37  
Month to date heating degree days 1047 1022  
Since 1 July heating degree days 4314 4758  
Cooling Degree Days 0 0  
Month to date cooling degree days 0 0  
Year to date cooling degree days 0 0  
Moisture  
Dew Point 23 °F    
Average Humidity 70    
Maximum Humidity 91    
Minimum Humidity 49    
Precipitation  
Precipitation 0.11 in 0.08 in 1.15 in (1979)
Month to date precipitation 1.75 1.90  
Year to date precipitation 3.46 4.40  
Snow  
Snow T in 0.80 in 8.20 in (2005)
Month to date snowfall 34.9 23.6  
Since 1 July snowfall 81.7 100.2  
Snow Depth 1.00 in    
Sea Level Pressure  
Sea Level Pressure 30.13 in    
Wind  
Wind Speed 10 mph (East)    
Max Wind Speed 21 mph    
Max Gust Speed 26 mph    
Visibility 9 miles    
Events Rain    
T = Trace of Precipitation, MM = Missing Value Source: NWS Daily Summary

Daily Weather History Graph

Daily Weather History Graph

Search for Another Location

Airport:

Trip Planner

Search our weather history database for the weather conditions in past years. The results will help you decide how hot, cold, wet, or windy it might be!

Date:

Astronomy

Feb. 26, 2013 Rise Set
Actual Time 6:44 AM EST 5:50 PM EST
Civil Twilight 6:16 AM EST 6:18 PM EST
Nautical Twilight 5:43 AM EST 6:51 PM EST
Astronomical Twilight 5:10 AM EST 7:24 PM EST
Moon 7:07 PM EST (2/26) 6:43 AM EST (2/26)
Length of Visible Light 12h 02m
Length of Day
11h 05m
Full, 99% of the Moon is Illuminated
Feb 26
Full
Mar 4
Last Quarter
Mar 11
New
Mar 19
First Quarter
Mar 27
Full

Hourly Weather History & Observations

Time (EST) Temp. Windchill Dew Point Humidity Pressure Visibility Wind Dir Wind Speed Gust Speed Precip Events Conditions
12:54 AM 25.0 °F - 19.9 °F 81% 30.24 in 10.0 mi Calm Calm - N/A   Partly Cloudy
1:54 AM 23.0 °F 15.8 °F 19.0 °F 85% 30.25 in 10.0 mi East 5.8 mph - N/A   Scattered Clouds
2:54 AM 21.9 °F 14.5 °F 18.0 °F 85% 30.25 in 10.0 mi East 5.8 mph - N/A   Clear
3:54 AM 21.0 °F 16.2 °F 17.1 °F 85% 30.25 in 9.0 mi East 3.5 mph - N/A   Clear
4:54 AM 19.9 °F 13.4 °F 17.1 °F 89% 30.26 in 8.0 mi East 4.6 mph - N/A   Partly Cloudy
5:54 AM 19.9 °F 13.4 °F 16.0 °F 85% 30.25 in 7.0 mi East 4.6 mph - N/A   Partly Cloudy
6:54 AM 21.0 °F 12.4 °F 17.1 °F 85% 30.25 in 6.0 mi East 6.9 mph - N/A   Partly Cloudy
7:54 AM 23.0 °F 14.7 °F 19.0 °F 85% 30.24 in 7.0 mi East 6.9 mph - N/A   Scattered Clouds
8:54 AM 27.0 °F 20.5 °F 21.0 °F 78% 30.25 in 10.0 mi ENE 5.8 mph - N/A   Scattered Clouds
9:54 AM 32.0 °F 26.4 °F 23.0 °F 69% 30.24 in 10.0 mi East 5.8 mph - N/A   Scattered Clouds
10:54 AM 37.9 °F 32.1 °F 25.0 °F 60% 30.21 in 10.0 mi East 8.1 mph - N/A   Scattered Clouds
11:54 AM 42.1 °F 36.1 °F 24.1 °F 49% 30.19 in 10.0 mi East 10.4 mph - N/A   Mostly Cloudy
12:54 PM 42.1 °F 33.9 °F 25.0 °F 51% 30.14 in 10.0 mi East 17.3 mph - N/A   Mostly Cloudy
1:54 PM 43.0 °F 35.1 °F 25.0 °F 49% 30.10 in 10.0 mi East 17.3 mph - N/A   Overcast
2:54 PM 42.1 °F 34.5 °F 27.0 °F 55% 30.08 in 10.0 mi East 15.0 mph - N/A   Overcast
3:54 PM 42.1 °F 35.2 °F 28.0 °F 58% 30.06 in 10.0 mi East 12.7 mph - N/A   Overcast
4:54 PM 41.0 °F 34.7 °F 27.0 °F 57% 30.04 in 10.0 mi East 10.4 mph - N/A   Overcast
5:54 PM 41.0 °F 33.9 °F 25.0 °F 53% 30.04 in 10.0 mi SE 12.7 mph - N/A   Overcast
6:54 PM 39.9 °F 31.8 °F 25.0 °F 55% 30.03 in 10.0 mi SE 15.0 mph 24.2 mph N/A   Overcast
7:54 PM 39.0 °F 30.6 °F 25.0 °F 57% 30.02 in 10.0 mi ESE 15.0 mph - N/A   Overcast
8:54 PM 39.0 °F 31.4 °F 25.0 °F 57% 29.97 in 10.0 mi East 12.7 mph - N/A   Overcast
9:54 PM 37.9 °F 28.5 °F 25.0 °F 60% 29.92 in 10.0 mi East 17.3 mph 25.3 mph 0.00 in Rain Light Rain
10:54 PM 36.0 °F 26.3 °F 27.0 °F 70% 29.91 in 10.0 mi East 16.1 mph - 0.01 in Rain Light Rain
11:18 PM 35.6 °F 28.6 °F 28.4 °F 75% 29.91 in 7.0 mi ENE 9.2 mph - 0.03 in Rain Light Rain
11:54 PM 35.1 °F 28.6 °F 28.0 °F 76% 29.92 in 7.0 mi East 8.1 mph - 0.09 in Rain Rain